Location: Caltech
(34.1382°N, 118.1253°W)
Time: 17:26:52
(UTC-07:00)

Iridium 59 - Visible Passes

Search period start: 06 May 2016 00:00
Search period end: 16 May 2016 00:00
Orbit: 776 x 779 km, 86.4° (Epoch: 06 May)

Date Brightness Start Highest point End Pass type
(mag) Time Alt. Az. Time Alt. Az. Time Alt. Az.
06 May 5.6 03:48:25 10° N 03:53:33 56° E 03:57:32 17° SSE visible
06 May 6.8 05:31:19 10° NW 05:33:40 13° W 05:36:02 10° WSW visible
07 May 6.7 03:15:25 10° NNE 03:19:55 29° E 03:23:32 14° SE visible
07 May 6.1 04:56:13 10° NNW 05:00:27 26° W 05:03:58 13° SW visible
08 May 7.6 02:43:12 10° NE 02:46:09 15° ENE 02:49:06 10° ESE visible
08 May 5.2 04:22:06 10° NNW 04:27:07 49° W 04:30:02 24° SSW visible
09 May 5.0 03:48:26 10° N 03:53:40 84° E 03:56:08 32° S visible
10 May 6.0 03:15:09 10° NNE 03:20:07 43° E 03:22:17 28° SE visible
10 May 6.6 04:57:04 10° NW 05:00:24 17° W 05:02:44 13° WSW visible
11 May 7.0 02:42:22 10° NNE 02:46:25 22° E 02:48:28 18° ESE visible
11 May 5.8 04:22:30 10° NNW 04:27:08 33° W 04:28:55 26° WSW visible
12 May 7.7 02:10:58 10° ENE 02:12:36 11° ENE 02:14:14 10° E visible
12 May 5.0 03:48:35 10° N 03:53:45 65° W 03:55:08 46° SSW visible
13 May 5.3 03:15:04 10° N 03:20:15 65° E 03:21:23 51° SE visible
13 May 6.9 04:58:45 10° WNW 05:00:17 11° WNW 05:01:49 10° W visible
14 May 6.3 02:41:57 10° NNE 02:46:38 33° E 02:47:38 31° ESE visible
14 May 6.3 04:23:07 10° NNW 04:27:05 22° W 04:28:05 21° W visible
15 May 7.2 02:09:29 10° NE 02:12:54 17° ENE 02:13:55 17° E visible
15 May 5.4 03:48:52 10° NNW 03:53:47 43° W 03:54:22 41° WSW visible
